Weather History for KNSE - February, 2014

Change the Weather History Date:

Sunday, February 23, 2014

  Actual Average Record
Temperature  
Mean Temperature 58 °F -  
Max Temperature 66 °F 64 °F 82 °F (2011)
Min Temperature 50 °F 46 °F 32 °F (2009)
Degree Days  
Heating Degree Days 7    
Growing Degree Days 8 (Base 50)    
Moisture  
Dew Point 54 °F    
Average Humidity 87    
Maximum Humidity 100    
Minimum Humidity 64    
Precipitation  
Precipitation 0.44 in - - ()
Sea Level Pressure  
Sea Level Pressure 30.00 in    
Wind  
Wind Speed 3 mph (SE)    
Max Wind Speed 13 mph    
Max Gust Speed 22 mph    
Visibility 5 miles    
Events Fog , Rain , Thunderstorm    
Averages and records for this station are not official NWS values.
T = Trace of Precipitation, MM = Missing Value Source: NWS Daily Summary

Daily Weather History Graph

Daily Weather History Graph

Search for Another Location

Airport or City:

Trip Planner

Search our weather history database for the weather conditions in past years. The results will help you decide how hot, cold, wet, or windy it might be!

Date:

Astronomy

Feb. 23, 2014 Rise Set
Actual Time 6:20 AM CST 5:42 PM CST
Civil Twilight 5:56 AM CST 6:06 PM CST
Nautical Twilight 5:28 AM CST 6:34 PM CST
Astronomical Twilight 5:00 AM CST 7:02 PM CST
Moon 1:07 AM CST (2/23) 11:56 AM CST (2/23)
Length of Visible Light 12h 10m
Length of Day
11h 21m
Last Quarter, 38% of the Moon is Illuminated
Feb 23
Last Quarter
Mar 1
New
Mar 8
First Quarter
Mar 16
Full
Mar 23
Last Quarter

Hourly Weather History & Observations

Time (CST) Temp. Dew Point Humidity Pressure Visibility Wind Dir Wind Speed Gust Speed Precip Events Conditions
12:56 AM 50.0 °F 42.1 °F 74% 29.99 in 10.0 mi East 3.5 mph - N/A   Clear
1:56 AM 53.1 °F 41.0 °F 64% 29.99 in 10.0 mi SE 5.8 mph - N/A   Scattered Clouds
2:31 AM 55.0 °F 43.0 °F 64% 30.02 in 10.0 mi Calm Calm - N/A   Overcast
2:51 AM 55.4 °F 44.6 °F 67% 30.01 in 10.0 mi Calm Calm - N/A   Overcast
2:56 AM 55.0 °F 43.0 °F 64% 29.97 in 10.0 mi Calm Calm - N/A   Overcast
3:11 AM 55.0 °F 43.0 °F 64% 30.01 in 10.0 mi Calm Calm - N/A   Overcast
3:19 AM 55.0 °F 44.1 °F 67% 30.00 in 10.0 mi Calm Calm - 0.00 in Rain , Thunderstorm Light Thunderstorms and Rain
3:37 AM 54.0 °F 44.1 °F 69% 30.00 in 10.0 mi ENE 3.5 mph - 0.00 in   Mostly Cloudy
3:44 AM 55.0 °F 44.1 °F 67% 30.00 in 10.0 mi Calm Calm - 0.00 in Thunderstorm Thunderstorm
3:56 AM 55.0 °F 45.0 °F 69% 29.96 in 10.0 mi South 5.8 mph - 0.00 in Rain , Thunderstorm Light Thunderstorms and Rain
4:03 AM 54.0 °F 46.0 °F 75% 29.99 in 2.0 mi South 3.5 mph - 0.08 in Rain , Thunderstorm Heavy Thunderstorms and Rain
4:10 AM 53.1 °F 48.0 °F 83% 29.99 in 1.2 mi Calm Calm - 0.14 in Rain , Thunderstorm Heavy Thunderstorms and Rain
4:19 AM 53.1 °F 46.9 °F 80% 30.01 in 3.0 mi Variable 3.5 mph 21.9 mph 0.15 in Rain , Thunderstorm Thunderstorms and Rain
4:56 AM 55.0 °F 51.1 °F 86% 29.97 in 10.0 mi SE 4.6 mph - 0.15 in Thunderstorm Thunderstorm
5:21 AM 55.9 °F 52.0 °F 87% 30.01 in 7.0 mi South 5.8 mph - 0.00 in Rain , Thunderstorm Light Thunderstorms and Rain
5:31 AM 55.9 °F 53.1 °F 90% 30.01 in 4.0 mi SSE 6.9 mph - 0.02 in Rain , Thunderstorm Thunderstorms and Rain
5:56 AM 54.0 °F 52.0 °F 93% 29.99 in 3.0 mi Calm Calm - 0.06 in Rain , Thunderstorm Heavy Thunderstorms and Rain
5:59 AM 54.0 °F 52.0 °F 93% 30.02 in 3.0 mi SE 3.5 mph - 0.00 in Rain Rain
6:39 AM 55.0 °F 53.1 °F 93% 30.00 in 7.0 mi ENE 3.5 mph - 0.00 in Rain Light Rain
6:56 AM 55.0 °F 52.0 °F 89% 29.96 in 6.0 mi East 4.6 mph - 0.00 in Rain Light Rain
7:06 AM 55.0 °F 52.0 °F 89% 30.00 in 6.0 mi East 3.5 mph - 0.00 in Rain Light Rain
7:23 AM 55.0 °F 53.1 °F 93% 30.02 in 7.0 mi Calm Calm - 0.00 in Rain Light Rain
7:40 AM 55.9 °F 53.1 °F 90% 30.03 in 4.0 mi NNE 3.5 mph - 0.00 in Rain , Thunderstorm Light Thunderstorms and Rain
7:52 AM 55.4 °F 53.6 °F 94% 30.03 in 2.5 mi North 5.8 mph - 0.00 in Rain Light Rain
7:56 AM 55.9 °F 53.1 °F 90% 30.00 in 2.5 mi North 5.8 mph - 0.00 in Rain Light Rain
8:03 AM 55.9 °F 53.1 °F 90% 30.04 in 1.8 mi North 4.6 mph - 0.00 in Thunderstorm Overcast
8:26 AM 55.9 °F 54.0 °F 93% 30.06 in 2.0 mi North 3.5 mph - 0.00 in Rain Light Rain
8:33 AM 55.9 °F 54.0 °F 93% 30.06 in 1.0 mi Calm Calm - 0.02 in Rain Rain
8:41 AM 55.9 °F 54.0 °F 93% 30.05 in 1.2 mi ESE 3.5 mph - 0.04 in Rain Rain
8:56 AM 57.0 °F 55.0 °F 93% 30.02 in 2.0 mi Calm Calm - 0.05 in Rain Rain
9:05 AM 57.9 °F 55.9 °F 93% 30.05 in 2.5 mi Calm Calm - 0.00 in Rain , Thunderstorm Light Thunderstorms and Rain
9:14 AM 57.9 °F 55.9 °F 93% 30.05 in 3.0 mi SE 3.5 mph - 0.00 in Rain , Thunderstorm Light Thunderstorms and Rain
9:22 AM 57.9 °F 55.9 °F 93% 30.05 in 4.0 mi ESE 4.6 mph - 0.00 in Rain Light Rain
9:56 AM 59.0 °F 57.0 °F 93% 30.02 in 3.0 mi Calm Calm - 0.00 in Rain Light Rain
10:07 AM 60.1 °F 57.9 °F 93% 30.05 in 3.0 mi SE 9.2 mph - 0.00 in Rain Light Rain
10:39 AM 61.0 °F - N/A% 30.04 in 1.8 mi SSE 4.6 mph - 0.03 in Rain , Thunderstorm Thunderstorms and Rain
10:56 AM 62.1 °F - N/A% 30.02 in 2.5 mi South 6.9 mph - 0.08 in Rain , Thunderstorm Thunderstorms and Rain
11:06 AM 62.1 °F - N/A% 30.04 in 2.5 mi ESE 5.8 mph - 0.02 in Rain Rain
11:17 AM 63.0 °F - N/A% 30.03 in 4.0 mi East 3.5 mph - 0.03 in Rain Light Rain
11:56 AM 64.9 °F - N/A% 30.00 in 10.0 mi Calm Calm - 0.03 in   Overcast
12:56 PM 64.9 °F - N/A% 29.98 in 10.0 mi Calm Calm - N/A   Overcast
1:48 PM 66.0 °F - N/A% 29.98 in 10.0 mi ESE 5.8 mph - 0.00 in   Overcast
1:56 PM 66.0 °F - N/A% 29.94 in 10.0 mi ESE 4.6 mph - 0.00 in   Overcast
2:56 PM 66.9 °F 64.0 °F 90% 29.94 in 10.0 mi SSE 6.9 mph - N/A   Overcast
3:22 PM 66.9 °F 64.0 °F 90% 29.97 in 6.0 mi SSE 11.5 mph - 0.00 in Rain Light Rain
3:30 PM 66.0 °F 64.0 °F 93% 29.98 in 6.0 mi SSE 12.7 mph - 0.00 in Rain Light Rain
3:56 PM 66.0 °F 64.0 °F 93% 29.94 in 5.0 mi South 6.9 mph - 0.00 in Rain Light Rain
4:16 PM 63.0 °F 61.0 °F 93% 29.96 in 3.0 mi SSE 12.7 mph - 0.04 in Rain Rain
4:56 PM 63.0 °F 61.0 °F 93% 29.92 in 5.0 mi SE 10.4 mph - 0.07 in Rain Light Rain
5:23 PM 63.0 °F 60.1 °F 90% 29.98 in 6.0 mi SSE 3.5 mph - 0.00 in   Overcast
5:56 PM 63.0 °F 60.1 °F 90% 29.95 in 5.0 mi South 5.8 mph - 0.00 in   Overcast
6:56 PM 62.1 °F 60.1 °F 93% 29.95 in 5.0 mi SSE 6.9 mph - 0.00 in   Overcast
7:40 PM 62.1 °F 60.1 °F 93% 30.00 in 3.0 mi Calm Calm - N/A   Overcast
7:56 PM 62.1 °F 61.0 °F 96% 29.98 in 0.8 mi Calm Calm - N/A   Overcast
8:06 PM 62.1 °F - N/A% 30.01 in 5.0 mi Calm Calm - N/A   Haze
8:54 PM 62.6 °F - N/A% 30.01 in 2.0 mi Calm Calm - N/A   Overcast
8:56 PM 62.1 °F - N/A% 29.97 in 1.8 mi Calm Calm - N/A   Overcast
9:17 PM 62.1 °F - N/A% 30.03 in 0.8 mi SW 4.6 mph - N/A   Mist
9:56 PM 62.1 °F 62.1 °F 100% 30.01 in 0.8 mi South 3.5 mph - N/A   Mist
10:56 PM 62.1 °F 62.1 °F 100% 30.01 in 0.5 mi SSW 3.5 mph - N/A Fog Fog
11:13 PM 62.1 °F 62.1 °F 100% 30.04 in 0.2 mi SSW 4.6 mph - N/A Fog Fog
11:56 PM 62.1 °F 61.0 °F 96% 29.99 in 0.2 mi South 4.6 mph - N/A Fog Fog